星链-1363 (STARLINK-1363 )

导读

STARLINK-1363是美国太空探索技术公司(SpaceX)星链(Starlink)星座的卫星,于2020年4月22日在美国肯尼迪航天中心由猎鹰9号火箭发射,属于星链项目早期部署卫星,主要为全球提供低延迟、高速率的宽带互联网服务,运行在近地轨道。

Basic Information
目录编号:
45568
目录名称:
STARLINK-1363
国际标识:
2020-025AP
轨道中心:
EARTH
卫星名称:
星链-1363
卫星全名:
星链-1363 (STARLINK-1363 )
卫星状态:
已陨落 最后检测时间 2026-06-01
发射日期:
2020-04-22 UTC
国别 :
美国 (US)
星等 :
--
Orbit Information
数据来源 国际轨道数据
星历时间: 2026-06-02T01:38:31+0800
轨道信息已过期17天
半长轴: 6529.183km
偏心率: 0.0007364
轨道倾角: 53.018°
近地点辐角 287.111°
升交点赤经 328.060°
平近点角 72.913°
近地点: 146.237km
远地点: 155.855km
周期: 87.508分钟
每日圈数: 16.455632
Detailed Information
固有亮度:
5
最大亮度:
2.5
卫星平台:
Starlink V1.0
覆盖范围:
全球
运营商:
太空探索技术公司
运营商所在国:
美国
制造商(研发单位):
太空探索技术公司
制造商所在国:
美国
使用方式:
暂无
Satellite Introduction
星链(Starlink)计划是由太空探索技术公司(SpaceX)提出的一个巨型低轨卫星互联网星座项目,计划在2019年至2024年间在太空搭建由约1.2万颗卫星组成的“星链”网络,其中1584颗将部署在地球上空550千米处的近地轨道,并从2020年开始工作。该卫星仍在工作。